This is the latest recevied weather packets stored in our database for station/object N9NDF. If no packets are shown the sender has not sent any weather packets the latest 10 day(s).
| Time | Temp. | Humidity | Pressure | Rain* | Wind** | Luminosity | Snow |
|---|---|---|---|---|---|---|---|
| 1778018961 | 12.78° C | 49% | 987.9 hPa | 0 mm | - | 150 W/m² | - |
| 1778018885 | 12.78° C | 49% | 987.9 hPa | 0 mm | - | 137 W/m² | - |
| 1778018829 | 12.78° C | 48% | 987.9 hPa | 0 mm | - | 127 W/m² | - |
| 1778018765 | 12.78° C | 49% | 987.9 hPa | 0 mm | - | 118 W/m² | - |
| 1778018708 | 12.78° C | 49% | 987.9 hPa | 0 mm | - | 114 W/m² | - |
| 1778018631 | 12.78° C | 49% | 987.9 hPa | 0 mm | - | 114 W/m² | - |
| 1778018556 | 12.78° C | 49% | 987.9 hPa | 0 mm | - | 118 W/m² | - |
| 1778018496 | 12.78° C | 48% | 988 hPa | 0 mm | - | 122 W/m² | - |
| 1778018437 | 12.78° C | 48% | 988 hPa | 0 mm | - | 121 W/m² | - |
| 1778018376 | 12.78° C | 49% | 988 hPa | 0 mm | - | 115 W/m² | - |
| 1778018301 | 13.33° C | 48% | 988 hPa | 0 mm | - | 113 W/m² | - |
| 1778018244 | 13.33° C | 47% | 987.9 hPa | 0 mm | - | 110 W/m² | - |
| 1778018181 | 13.33° C | 48% | 987.9 hPa | 0 mm | - | 107 W/m² | - |
| 1778018121 | 13.33° C | 48% | 987.9 hPa | 0 mm | - | 111 W/m² | - |
| 1778018061 | 13.33° C | 48% | 987.9 hPa | 0 mm | - | 121 W/m² | - |
| 1778018004 | 13.33° C | 47% | 987.9 hPa | 0 mm | - | 130 W/m² | - |
| 1778017982 | 13.33° C | 49% | 987.8 hPa | 0 mm | - | 137 W/m² | - |
| 1778017883 | 13.33° C | 49% | 987.9 hPa | 0 mm | - | 140 W/m² | - |
| 1778017822 | 13.33° C | 49% | 987.8 hPa | 0 mm | - | 134 W/m² | - |
| 1778017762 | 13.33° C | 50% | 987.9 hPa | 0 mm | - | 128 W/m² | - |
| 1778017701 | 13.33° C | 49% | 987.9 hPa | 0 mm | - | 134 W/m² | - |
| 1778017641 | 13.33° C | 52% | 987.9 hPa | 0 mm | - | 139 W/m² | - |
| 1778017581 | 13.33° C | 51% | 988 hPa | 0 mm | - | 134 W/m² | - |
| 1778017523 | 13.33° C | 49% | 987.9 hPa | 0 mm | - | 121 W/m² | - |
| 1778017462 | 13.33° C | 49% | 988 hPa | 0 mm | - | 116 W/m² | - |
* Rain latest hour (hover to see other rain measurements)
** Current wind speed in m/s (hover to see current wind gust speed)